Weather History for Greenwood, NS

Change the Weather History Date:

Thursday, April 24, 2014

  Actual Average Record
Temperature  
Mean Temperature 44 °F -  
Max Temperature 55 °F 59 °F 77 °F (2001)
Min Temperature 33 °F 38 °F 28 °F (1997)
Degree Days  
Heating Degree Days 21    
Moisture  
Dew Point 38 °F    
Average Humidity 95    
Maximum Humidity 100    
Minimum Humidity 92    
Precipitation  
Precipitation 0.35 in 0.11 in - ()
Sea Level Pressure  
Sea Level Pressure 29.40 in    
Wind  
Wind Speed 11 mph ()    
Max Wind Speed 18 mph    
Max Gust Speed 40 mph    
Visibility 6.7 miles    
Events Rain , Snow    
Averages and records for this station are not official NWS values.
T = Trace of Precipitation, MM = Missing Value Source: Averaged Metar Reports

Daily Weather History Graph

Daily Weather History Graph

Search for Another Location

Airport:

Trip Planner

Search our weather history database for the weather conditions in past years. The results will help you decide how hot, cold, wet, or windy it might be!

Date:

Astronomy

Apr. 24, 2014 Rise Set
Actual Time 6:19 AM ADT 8:16 PM ADT
Civil Twilight 5:48 AM ADT 8:48 PM ADT
Nautical Twilight 5:09 AM ADT 9:26 PM ADT
Astronomical Twilight 4:27 AM ADT 10:09 PM ADT
Moon 3:42 AM ADT (4/24) 3:14 PM ADT (4/24)
Length of Visible Light 14h 59m
Length of Day
13h 56m
Waning Crescent, 25% of the Moon is Illuminated
Apr 24
Waning Crescent
Apr 29
New
May 7
First Quarter
May 14
Full
May 21
Last Quarter

Hourly Weather History & Observations

Time (ADT) Temp. Windchill Dew Point Humidity Pressure Visibility Wind Dir Wind Speed Gust Speed Precip Events Conditions
12:00 AM 46.4 °F 41.5 °F 44.6 °F 93% 29.36 in 15.0 mi East 10.4 mph - N/A   Overcast
1:00 AM 44.6 °F 39.2 °F 44.6 °F 100% 29.35 in 15.0 mi East 10.4 mph - N/A   Overcast
2:00 AM 46.4 °F 40.4 °F 44.6 °F 93% 29.35 in 15.0 mi East 13.8 mph - N/A   Overcast
3:00 AM 42 °F - 42 °F 98% 29.34 in 12 mi East 10.4 mph - -   Overcast
3:00 AM 42.8 °F 37.0 °F 41.0 °F 93% 29.34 in 12.0 mi East 10.4 mph - N/A   Overcast
3:11 AM - - - N/A% - 12.0 mi ENE 9.2 mph - N/A Rain Light Rain
4:00 AM 42.8 °F 38.6 °F 41.0 °F 93% 29.31 in 12.0 mi East 6.9 mph - N/A Rain Light Rain
5:00 AM 41.0 °F 34.3 °F 41.0 °F 100% 29.30 in 12.0 mi ENE 11.5 mph - N/A Rain Light Rain
6:00 AM 41.0 °F 34.7 °F 39.2 °F 93% 29.29 in 9.0 mi ENE 10.4 mph - N/A Rain Light Rain
7:00 AM 39.2 °F 32.0 °F 39.2 °F 100% 29.30 in 9.0 mi NE 11.5 mph - N/A Rain Light Rain
8:00 AM 39.2 °F 33.0 °F 39.2 °F 100% 29.31 in 9.0 mi NE 9.2 mph - N/A Rain Light Rain
9:00 AM 41 °F - 40 °F 94% 29.31 in 9 mi NE 11.5 mph - - Rain Light Rain
9:00 AM 41.0 °F 35.2 °F 39.2 °F 93% 29.30 in 9.0 mi NE 9.2 mph 18.4 mph N/A Rain Light Rain
9:10 AM - - - N/A% - 6.0 mi NE 10.4 mph - N/A Rain Light Rain
9:29 AM - - - N/A% - 3.0 mi NE 10.4 mph 18.4 mph N/A Rain Light Rain
10:00 AM 42.8 °F 36.2 °F 41.0 °F 93% 29.30 in 3.0 mi NE 12.7 mph - N/A Rain Light Rain
11:00 AM 41.0 °F 35.8 °F 41.0 °F 100% 29.32 in 3.0 mi NE 8.1 mph - N/A Rain Light Rain
11:23 AM - - - N/A% - 6.0 mi NE 15.0 mph 25.3 mph N/A Rain Light Rain
12:00 PM 41.0 °F 32.2 °F 39.2 °F 93% 29.34 in 6.0 mi NNE 18.4 mph - N/A Rain Light Rain
1:00 PM 39.2 °F 30.8 °F 37.4 °F 93% 29.36 in 6.0 mi NNE 15.0 mph - N/A Rain Light Rain
2:00 PM 37.4 °F 28.5 °F 37.4 °F 100% 29.37 in 6.0 mi NNE 15.0 mph 20.7 mph N/A Rain Light Rain
3:00 PM 39 °F - 37 °F 92% 29.40 in 6 mi NNE 17.3 mph - - Rain Light Rain
3:00 PM 39.2 °F 30.8 °F 37.4 °F 93% 29.39 in 6.0 mi NNE 15.0 mph 24.2 mph N/A Rain Light Rain
4:00 PM 37.4 °F 28.2 °F 35.6 °F 93% 29.41 in 6.0 mi NNE 16.1 mph 40.3 mph N/A Rain Light Rain
4:37 PM - - - N/A% - 5.0 mi NNE 16.1 mph 23.0 mph N/A Rain Light Rain
5:00 PM 37.4 °F 29.3 °F 35.6 °F 93% 29.44 in 5.0 mi NNE 12.7 mph 23.0 mph N/A Rain Light Rain
5:22 PM - - - N/A% - 5.0 mi NNE 17.3 mph 24.2 mph N/A Rain Light Rain
5:38 PM - - - N/A% - 5.0 mi NNE 16.1 mph 23.0 mph N/A   Light Ice Pellet Showers
6:00 PM 35.6 °F 27.5 °F 33.8 °F 93% 29.48 in 5.0 mi NNE 11.5 mph 23.0 mph N/A Snow Light Snow
6:08 PM - - - N/A% - 3.0 mi NNE 12.7 mph - N/A   Unknown
6:40 PM - - - N/A% - 2.0 mi NNE 11.5 mph 18.4 mph N/A   Unknown
7:00 PM 33.8 °F 23.9 °F 32.0 °F 93% 29.51 in 1.5 mi NNE 15.0 mph 20.7 mph N/A Snow Light Snow
8:00 PM 33.8 °F 23.5 °F 33.8 °F 100% 29.55 in 1.5 mi NNE 16.1 mph 21.9 mph N/A Snow Light Snow
9:00 PM 34 °F - 33 °F 93% 29.60 in 1 mi NNE 15.0 mph - - Snow Light Snow
9:00 PM 33.8 °F 24.3 °F 32.0 °F 93% 29.59 in 1.5 mi NNE 13.8 mph 23.0 mph N/A Snow Light Snow
10:00 PM 33.8 °F 23.5 °F 32.0 °F 93% 29.63 in 2.0 mi NNE 16.1 mph 21.9 mph N/A Snow Light Snow
11:00 PM 33.8 °F 23.9 °F 32.0 °F 93% 29.65 in 2.0 mi NNE 15.0 mph 20.7 mph N/A Snow Light Snow